📊 Raw Sensor Data
Showing records 48501 to 48525 of 85,102 total
| ID | Distance (ft) | Battery V | Battery A | Int Temp (°F) | Int Humid (%) | Ext Temp (°F) | Solar V | RSSI | SNR | Time Stamp |
|---|---|---|---|---|---|---|---|---|---|---|
| 36614 | -- | 3.97 | -5 | 48 | 44 | 49 | 0.00 | -81 | 8 | 04/01/2025 08:15 PM |
| 36613 | -- | 3.84 | -5 | 49 | 45 | 49 | 0.00 | -82 | 7 | 04/01/2025 08:00 PM |
| 36612 | -- | 3.97 | -5 | 50 | 46 | 50 | 0.60 | -80 | 8 | 04/01/2025 07:46 PM |
| 36611 | -- | 3.82 | -22 | 52 | 46 | 50 | 4.10 | -83 | 8 | 04/01/2025 07:30 PM |
| 36610 | -- | 4.00 | 0 | 55 | 45 | 53 | 4.60 | -81 | 9 | 04/01/2025 07:15 PM |
| 36609 | -- | 4.05 | 9 | 58 | 44 | 53 | 4.50 | -83 | 8 | 04/01/2025 07:00 PM |
| 36608 | -- | 3.96 | 0 | 60 | 42 | 56 | 5.10 | -83 | 8 | 04/01/2025 06:45 PM |
| 36607 | -- | 3.96 | 0 | 61 | 41 | 57 | 5.10 | -85 | 9 | 04/01/2025 06:30 PM |
| 36606 | -- | 3.96 | 0 | 62 | 40 | 57 | 5.10 | -81 | 8 | 04/01/2025 06:15 PM |
| 36605 | -- | 3.96 | 0 | 63 | 39 | 58 | 5.10 | -85 | 8 | 04/01/2025 06:00 PM |
| 36604 | -- | 3.96 | 0 | 58 | 42 | 58 | 5.10 | -85 | 8 | 04/01/2025 05:45 PM |
| 36603 | -- | 3.96 | 0 | 56 | 43 | 54 | 5.10 | -86 | 8 | 04/01/2025 05:30 PM |
| 36602 | 15.0 | 4.13 | 0 | 58 | 42 | 55 | 5.10 | -85 | 8 | 04/01/2025 05:15 PM |
| 36601 | -- | 3.96 | 0 | 64 | 38 | 58 | 5.10 | -85 | 8 | 04/01/2025 05:01 PM |
| 36600 | 15.0 | 3.96 | 0 | 57 | 42 | 55 | 5.10 | -86 | 6 | 04/01/2025 04:45 PM |
| 36599 | 15.0 | 3.96 | 0 | 59 | 41 | 55 | 5.10 | -85 | 7 | 04/01/2025 04:30 PM |
| 36598 | 15.0 | 3.96 | 0 | 58 | 42 | 54 | 5.10 | -85 | 8 | 04/01/2025 04:15 PM |
| 36597 | -- | 3.96 | 0 | 55 | 44 | 52 | 5.10 | -89 | 8 | 04/01/2025 04:00 PM |
| 36596 | -- | 3.96 | 0 | 58 | 43 | 56 | 5.10 | -93 | 7 | 04/01/2025 03:45 PM |
| 36595 | -- | 3.96 | 0 | 62 | 40 | 56 | 5.10 | -91 | 7 | 04/01/2025 03:30 PM |
| 36594 | 15.0 | 3.97 | 0 | 62 | 39 | 60 | 5.10 | -89 | 6 | 04/01/2025 03:15 PM |
| 36593 | -- | 3.96 | 0 | 63 | 37 | 60 | 5.10 | -85 | 8 | 04/01/2025 03:00 PM |
| 36592 | 14.9 | 4.02 | 0 | 52 | 44 | 55 | 5.10 | -86 | 7 | 04/01/2025 02:45 PM |
| 36591 | 21.4 | 3.99 | 15 | 48 | 47 | 47 | 4.50 | -87 | 7 | 04/01/2025 02:30 PM |
| 36590 | -- | 4.05 | 10 | 49 | 48 | 47 | 4.50 | -86 | 8 | 04/01/2025 02:15 PM |